Regional Weather Roundup
Issued by NWS

Home | Current Version | Previous Version | Graphics & Text | Print | Product List | Glossary On
Versions: 1 2 3 4 5 6 7 8 9 10 11 12 13 14 15 16 17 18 19 20 21 22 23 24 25 26 27 28 29 30 31 32 33 34 35 36 37 38 39 40 41 42 43 44 45 46 47 48 49 50
000
ASUS43 KLSX 210207
RWRMO

WEATHER SUMMARY FOR MISSOURI
NATIONAL WEATHER SERVICE SPRINGFIELD MO
900 PM CDT SAT SEP 20 2014

NOTE: "FAIR" INDICATES FEW OR NO CLOUDS BELOW 12,000 FEET WITH NO
       SIGNIFICANT WEATHER AND/OR OBSTRUCTIONS TO VISIBILITY.
       CURRENT SKY AND/OR WEATHER CONDITIONS ARE NOT AVAILABLE FOR
       CHILLICOTHE AND FARMINGTON.

MOZ001>031-035>038-043-044-053-054-210300-
...NORTHERN AND WESTERN MISSOURI...

CITY           SKY/WX    TMP DP  RH WIND       PRES   REMARKS
KANSAS CTY INT CLEAR     71  69  93 W6        29.97R
KANSAS C DTWN  CLEAR     77  69  76 W3        29.95R
LEE`S SUMMIT   PTCLDY    73  70  90 W3        29.97R
ST JOSEPH      CLEAR     70  68  93 S3        29.96R
CHILLICOTHE      N/A     77  71  82 VRB3      29.94R
KIRKSVILLE     PTCLDY    74  71  91 SW5       29.92R

$$
MOZ066>068-077>081-088>096-101>105-210300-
...SOUTHWEST MISSOURI...

CITY           SKY/WX    TMP DP  RH WIND       PRES   REMARKS
SPRINGFIELD    MOCLDY    73  68  84 SW6       30.00R
JOPLIN         CLOUDY    75  70  84 S7        30.00S

$$
MOZ032>034-039>042-045>050-055>058-069>072-210300-
...CENTRAL MISSOURI...

CITY           SKY/WX    TMP DP  RH WIND       PRES   REMARKS
COLUMBIA       CLEAR     72  69  90 SW8       29.95R
JEFFERSON CITY CLEAR     75  69  81 CALM      29.94R
ROLLA          CLEAR     70  66  87 SW6       29.97R
SEDALIA        CLEAR     76  70  82 SW8       29.96R
WHITEMAN AFB   CLEAR     72  69  93 SW6       29.95R
OSAGE BEACH    PTCLDY    72  68  88 S3        29.97R

$$
MOZ051-052-059>065-210300-
...EAST CENTRAL MISSOURI...

CITY           SKY/WX    TMP DP  RH WIND       PRES   REMARKS
ST LOUIS INTL  PTCLDY    79  67  66 SW7       29.93R
SPIRIT OF STL  CLEAR     70  67  90 W3        29.92R
ST CHARLES     CLEAR     72  66  81 CALM      29.90S

$$
MOZ072>076-082>087-097>100-106>115-210300-
...SOUTH CENTRAL AND SOUTHEAST MISSOURI...

CITY           SKY/WX    TMP DP  RH WIND       PRES   REMARKS
CAPE GIRARDEAU CLEAR     70  66  87 CALM      29.97R
FARMINGTON     CLEAR     72  66  83 CALM      30.00R
POPLAR BLUFF   CLEAR     73  66  78 SW5       29.96R
WEST PLAINS    CLEAR     73  68  84 CALM      30.02R

$$



USA.gov is the U.S. government's official web portal to all federal, state and local government web resources and services.